User: anonymous   Login
Location: Unspecified
(0.0000°N, 0.0000°E)
Time: 17:21:13
(UTC+00:00)
Language:

Picosat 4 - Orbit

View from above orbital plane
View from above orbital plane
View from above satellite
View from above satellite

Ground track
Ground track

The orbit data is extracted from the following two-line orbital elements,

1 26092U 00004K   18145.54692717  .00000100  00000-0  47148-4 0  9992
2 26092 100.1834 265.5049 0032977 281.6333  78.1151 14.43408515961108
Epoch (UTC): 25 May 2018 13:07:34
Eccentricity: 0.0032977
inclination: 100.1834°
perigee height: 724 km
apogee height: 771 km
right ascension of ascending node: 265.5049°
argument of perigee: 281.6333°
revolutions per day: 14.43408515
mean anomaly at epoch: 78.1151°
orbit number at epoch: 96110

The dashed part of the orbit path shows where the satellite is in the earth's shadow,  

DLR